Airfield :
LOGIN :

Register | Disclaimer

   EN    FR    IT 

 










Legend :    VFR   Marginal VFR   IFR   Intensive IFR   Very Intensive IFR
Visi :
Ceiling :
>= 8 km
>= 3000ft
5 to 8 km
1000 to 3000 ft
1500m to 5 km
500 to 1000 ft
800 to 1500m
200 to 500 ft
< 800m
< 200 ft
Symbols :   Thunderstorms  Fog  Heavy snow  Heavy precipitations  Wind > 20 kt
SIGMETs :     Misc.  Thunderstorms  Icing  Turbulence  Mountain Waves  Volcanic Ashes







- Airport Elevation : 79 ft
- IATA code : NSY


LICZ - Sigonella (Mil) Catania

CURRENT METAR :
  • 171055Z 25018KT 9999 FEW040 15/01 Q1016 RMK SCT VIS MIN 9999 WIND THR28 26017KT WIND THR10 26017KT A3002 BLU

EXPIRED METARs :
  • 170955Z 26015KT 9999 FEW030 13/02 Q1016 RMK FEW VIS MIN 9999 WIND THR28 26014KT WIND THR10 26012KT A3002 BLU
  • 170855Z 25014KT 9999 FEW070 12/03 Q1016 RMK FEW VIS MIN 9999 WIND THR28 26014KT WIND THR10 25011KT A3002 BLU

TAF TAF LICZ
Valid from the 17 at 12:00 until the 17 at 21:00 UTC


171100Z 1712/1721 24018KT 9999 FEW020
No reported NOTAMs for that airfield.



MET'MAP, your aeronautical weather chart ! - Copyright ORBIFLY December 2007 - Disclaimer

ORBIFLY MET'MAP TEAM :

Programming & Development : Alexandra Zaïnal
Concept & Development : Baudouin d'Aumeries
Co-Development & Prog : Marc-Olivier Méhu
Technical & hardware support : Manuel Goepfert

Contact : metmap@orbifly.com




SOURCES & CREDITS :

   NOAA